Location: Clover
(42.5131°N, 114.6874°W)
Time: 12:25:29
(UTC+00:00)

ARIANE 6 FM1 Upper Stage - Pass Details

Date: 24 January 2026
Orbit: 522 x 609 km, 62.0° (Epoch: 11 February)

Event Time Altitude Azimuth Distance (km) Brightness Sun altitude
Rises 01:30:31 0° 199° (SSW) 2,719 6.7 -9.3°
Reaches altitude 10° 01:32:49 10° 192° (SSW) 1,815 5.7 -9.7°
Maximum altitude 01:36:39 41° 122° (ESE) 791 3.1 -10.4°
Enters shadow 01:39:44 14° 55° (NE) 1,525 4.3 -10.9°
